Location: Boissi�res
(45.2500°N, 2.3667°E)
Time: 20:06:31
(UTC+00:00)

Cosmos 1302 Rocket - Pass Details

Date: 03 March 2021
Orbit: 756 x 777 km, 74.0° (Epoch: 17 April)

Event Time Altitude Azimuth Distance (km) Brightness Sun altitude
Rises 18:07:05 0° 202° (SSW) 3,197 7.6 -5.5°
Reaches altitude 10° 18:09:26 10° 203° (SSW) 2,277 6.8 -5.9°
Maximum altitude 18:14:36 81° 291° (WNW) 772 4.2 -6.8°
Drops below altitude 10° 18:19:50 10° 20° (NNE) 2,301 6.3 -7.7°
Sets 18:22:13 0° 21° (NNE) 3,234 7.0 -8.1°
